Location: Babbelaar
(50.9750°N, 4.0292°E)
Time: 15:44:48
(UTC+00:00)

Daily predictions for brighter satellites

Satellite Brightness Start Highest point End
(mag) Time Altitude Azimuth Time Altitude Azimuth Time Altitude Azimuth
Atlas Centaur 2 4.5 20:32:50 10° SSW 20:37:29 16° S 20:42:07 10° SE
SL-16 R/B 2.5 20:32:00 10° NNW 20:37:39 63° NE 20:43:16 10° SE
Cosmos 1763 Rocket 4.0 20:33:47 10° NNW 20:38:59 59° WSW 20:44:04 10° S
Cosmos 2369 4.5 20:33:37 10° NW 20:39:10 51° WSW 20:44:40 10° S
ERS-1 Rocket 3.0 20:34:43 10° SSE 20:39:45 84° ENE 20:44:49 10° NNW
RESURS DK-1 3.2 20:37:12 10° NNW 20:41:05 40° NE 20:44:56 10° ESE
Resurs 01 Rocket 4.0 20:38:35 10° SW 20:41:53 20° W 20:45:12 10° NW
Cosmos 2082 Rocket 2.3 20:38:16 10° SSW 20:44:00 87° WNW 20:49:45 10° NNE
Spot 2 Rocket 3.6 20:39:18 10° SSE 20:44:20 72° ENE 20:49:26 10° NNW
Cosmos 1933 Rocket 3.7 20:40:56 10° NNW 20:45:22 79° W 20:49:48 10° S
Cosmos 1470 3.0 20:42:21 10° NNW 20:46:01 64° W 20:49:40 10° S
SPOT 5 3.4 20:44:52 10° S 20:49:04 51° W 20:53:21 10° NNW
Cosmos 1300 3.7 20:46:21 10° N 20:49:30 29° ENE 20:52:39 10° SE
Cosmos 1908 3.2 20:49:37 10° NNW 20:53:14 77° W 20:56:49 10° S
Cosmos 1346 Rocket 3.8 20:54:31 10° N 20:58:03 32° ENE 21:01:33 10° SE
ATLAS 2AS CENTAUR R/B 3.1 20:53:38 10° NW 21:00:31 61° NE 21:07:07 10° ESE
Cosmos 1674 3.8 20:57:39 10° SSW 21:00:58 41° WNW 21:04:17 10° N
Meteor 1-22 Rocket 4.3 20:56:36 10° N 21:02:13 80° ENE 21:08:00 10° SSE
Ariane Rocket 3.1 21:03:47 10° S 21:08:52 78° WSW 21:14:00 10° NNW
Cosmos 1758 3.6 21:05:28 10° N 21:09:18 53° ENE 21:12:54 11° SSE
Cosmos 1842 4.5 21:07:39 10° SW 21:11:07 40° WNW 21:14:36 10° N
Meteor 1-4 Rocket 4.4 21:10:10 10° ESE 21:11:13 11° E 21:12:16 10° ENE
Cosmos 1356 Rocket 4.2 21:09:22 10° SSE 21:13:10 35° E 21:17:01 10° NNE
COSMOS 2406 3.8 21:11:35 10° SW 21:17:18 64° NW 21:23:02 10° NNE
SPOT 3 Rocket 3.7 21:12:42 10° S 21:17:50 72° WSW 21:23:01 10° NNW
Meteor 1-13 Rocket 4.4 21:14:06 10° SSW 21:19:55 82° WNW 21:25:38 10° N
Cosmos 1707 Rocket 4.1 21:16:10 11° SSE 21:20:17 43° E 21:24:30 10° NNE
SL-27 R/B 3.6 21:19:33 14° SE 21:20:43 18° ESE 21:22:41 10° ENE
ARIANE 5 R/B 3.9 21:17:35 10° ESE 21:21:16 28° ENE 21:24:57 10° N
Cosmos 1980 Rocket 4.3 21:17:30 10° NW 21:21:30 20° W 21:25:29 10° SW
S3M 4.2 21:15:51 10° NNW 21:22:15 76° W 21:28:33 10° S
Cosmos 2322 Rocket 2.3 21:16:34 10° NNW 21:22:17 83° ENE 21:27:28 13° SSE
Spot 1 4.4 21:19:11 10° NNE 21:23:34 56° ESE 21:28:10 10° S
Cosmos 1655 Rocket 4.1 21:23:47 10° S 21:30:09 73° E 21:36:33 10° NNE
Landsat 5 3.4 21:27:04 10° NNE 21:31:00 61° ESE 21:35:02 10° S
Cosmos 2278 4.4 21:25:34 10° NW 21:31:02 48° WSW 21:36:25 10° S
SJ 16-02 2.6 21:28:53 14° SSE 21:31:34 24° E 21:35:03 10° NE
Cosmos 1741 Rocket 4.2 21:32:24 10° S 21:37:31 54° ESE 21:42:42 10° NNE
USA 281 3.5 21:32:45 12° SE 21:38:51 65° ENE 21:45:22 10° NNW
Cosmos 2266 Rocket 4.3 21:33:35 10° SSW 21:39:54 73° WNW 21:46:20 10° N
Cosmos 1400 Rocket 3.0 21:36:09 10° SSW 21:40:03 70° WNW 21:43:55 10° N
COSMOS 2428 4.1 21:35:10 10° NNW 21:40:14 32° NE 21:45:17 10° ESE
Cosmos 1733 Rocket 3.1 21:36:09 10° N 21:40:35 88° E 21:44:16 15° S
GP-B 4.3 21:38:03 10° NNE 21:41:52 28° E 21:44:46 15° SE
MetOp-A 4.1 21:37:25 13° SSE 21:42:06 81° WSW 21:47:24 10° NNW
Okean 3 3.8 21:39:26 15° SSE 21:42:36 47° E 21:46:37 10° NNE
Terra 3.2 21:38:59 10° SSW 21:43:12 32° W 21:47:26 10° NNW
Cosmos 968 Rocket 3.8 21:41:01 12° S 21:45:35 47° ESE 21:50:33 10° NE
Cosmos 1814 Rocket 4.2 21:40:24 10° NNW 21:45:41 68° ENE 21:50:00 16° SE
SL-4 R/B 2.0 21:43:19 10° W 21:47:14 82° N 21:51:25 10° E
Cosmos 2228 Rocket 3.2 21:44:46 10° S 21:49:19 89° W 21:53:56 10° N
Cosmos 2219 Rocket 2.5 21:45:21 10° NNW 21:51:00 62° NE 21:55:47 14° SE
Cosmos 1908 Rocket 4.3 21:47:43 10° N 21:51:52 41° ENE 21:54:53 17° SE
Cosmos 1315 Rocket 3.7 21:51:04 18° SSE 21:53:26 34° E 21:57:04 10° NNE
ATLAS CENTAUR R/B 1.5 21:52:13 15° S 21:54:46 38° ESE 21:58:09 10° NE
Meteor 2-10 Rocket 4.3 21:50:01 10° NNW 21:55:31 53° W 22:00:34 11° S
Cosmos 1953 2.7 21:54:39 10° N 21:58:25 49° ENE 22:00:51 20° SE
Cosmos 1455 2.6 21:58:15 10° N 22:01:39 45° ENE 22:03:41 21° SE
H-2A R/B 3.4 21:59:30 16° SE 22:02:35 39° ENE 22:06:34 10° N
Cosmos 1242 Rocket 3.7 22:04:20 17° ESE 22:04:56 18° E 22:06:57 10° NE
USA 234 3.5 21:59:15 10° ENE 22:05:48 76° NNW 22:12:20 10° WSW
Okean 1-7 3.3 22:04:58 19° SSE 22:07:52 55° E 22:12:07 10° NNE
BREEZE-M DEB (TANK) 3.3 22:06:22 10° W 22:08:19 26° SSW 22:09:08 23° SSE
CZ-2C R/B 3.8 22:04:16 10° NNE 22:08:37 54° E 22:11:36 19° S
Cosmos 2360 Rocket 2.6 22:08:27 10° NW 22:14:00 56° WSW 22:18:06 18° S
ALOS 2 3.8 22:11:53 14° ESE 22:15:01 33° ENE 22:18:57 10° N
RESURS DK-1 3.8 22:15:13 10° NW 22:18:39 27° WSW 22:21:10 15° SSW
Cosmos 2333 Rocket 2.6 22:13:26 10° NW 22:19:02 56° WSW 22:23:08 19° S
SL-16 R/B 3.7 22:16:41 10° NW 22:21:21 27° WSW 22:25:47 11° SSW
H-2A R/B 4.4 22:21:24 10° E 22:21:42 10° E 22:22:00 10° E
Cosmos 1300 4.5 22:21:15 10° NW 22:24:07 23° W 22:26:54 10° SW
Atlas Centaur 2 4.4 22:21:09 10° SW 22:25:08 14° SSW 22:25:49 14° S
EXPRESS MD2 1.7 22:24:51 10° WSW 22:27:05 63° S 22:27:54 31° ESE
OPS 8737 4.1 22:24:38 10° NW 22:27:31 63° SW 22:28:45 31° SSE
SL-08 R/B 4.4 22:25:46 18° S 22:30:30 77° E 22:36:37 10° NNE
BREEZE-M DEB (TANK) 3.8 22:15:46 10° W 22:31:57 79° S 22:36:04 10° E
Aureole 3 4.1 22:30:50 14° SSW 22:34:02 52° WNW 22:38:40 10° N
Cosmos 1703 Rocket 3.6 22:32:44 22° S 22:35:30 69° E 22:39:57 10° NNE
Cosmos 1833 4.2 22:30:13 10° SSW 22:35:52 87° ESE 22:41:32 10° NNE
DNEPR-1 R/B 4.4 22:29:15 10° NW 22:36:06 70° SW 22:39:56 21° SSE
Cosmos 839 Rocket 4.4 22:36:47 10° NW 22:43:37 56° WSW 22:47:42 21° S
Meteor 1-4 Rocket 3.1 22:41:49 18° SW 22:43:40 41° WNW 22:46:34 10° N
Cosmos 1932 4.5 22:38:31 10° SSW 22:44:42 67° SE 22:50:55 10° NE
Cosmos 2322 3.7 22:39:51 10° NNW 22:45:35 88° ENE 22:49:30 21° SSE
Cosmos 2237 Rocket 3.4 22:41:21 10° NNW 22:46:40 38° NE 22:51:55 10° ESE
BlueWalker 3 3.7 22:50:03 16° ESE 22:50:03 16° ESE 22:51:34 10° E
ATLAS 2AS CENTAUR R/B 3.3 22:44:55 10° NW 22:51:13 41° WSW 22:55:16 20° S
SL-27 R/B 4.0 22:51:09 10° WSW 22:53:31 24° WNW 22:55:54 10° N
Cosmos 405 Rocket 4.4 22:50:34 10° NNE 22:53:39 23° ENE 22:55:58 14° ESE
Cosmos 2227 Rocket 4.3 22:54:23 10° ESE 22:56:03 11° E 22:57:44 10° ENE
ARIANE 5 R/B 3.5 22:54:58 20° SSW 22:57:32 38° W 23:01:36 10° NNW
Cosmos 1980 4.5 22:53:59 10° NNW 22:59:29 47° NE 23:04:39 11° SE
PSLV R/B 4.2 22:56:12 10° N 23:00:11 62° WNW 23:02:51 20° SSW
Okean 2 4.3 23:00:22 16° SW 23:03:16 42° WNW 23:07:07 10° N
Cosmos 2322 Rocket 4.0 23:01:42 10° NW 23:05:38 19° W 23:09:15 11° SW
Cosmos 1570 Rocket 4.2 23:00:53 10° NNW 23:06:12 67° WSW 23:09:22 24° S
Meteor 2-5 Rocket 4.5 23:03:32 21° SSE 23:07:03 42° E 23:12:32 10° NNE
PSLV R/B 4.3 23:03:10 10° NNE 23:07:09 37° E 23:08:58 25° SE
Cosmos 1703 3.9 23:06:48 27° SE 23:08:11 37° E 23:11:38 10° NNE
SJ 16-02 2.3 23:05:36 10° SW 23:09:41 43° WNW 23:13:50 10° NNE
Cosmos 1745 Rocket 4.0 23:05:11 21° S 23:09:42 89° WNW 23:16:07 10° N
Cosmos 1241 Rocket 4.4 23:04:34 10° SW 23:10:46 88° NW 23:17:06 10° NE
COSMOS 2455 3.5 23:08:59 23° SSE 23:12:03 38° ESE 23:17:34 10° NE
Cosmos 2297 Rocket 3.3 23:13:10 20° SSE 23:15:47 29° ESE 23:20:36 10° NE
Nadezhda 1 Rocket 4.3 23:11:19 10° NNW 23:17:31 60° W 23:21:42 21° SSW
Cosmos 2181 Rocket 4.4 23:11:43 10° N 23:17:50 54° ENE 23:22:13 19° SSE
GP-B 4.3 23:15:04 10° NNW 23:19:06 36° W 23:22:05 16° SW
Cosmos 1408 1.9 23:22:14 43° SSW 23:23:05 82° W 23:26:06 10° N
USA 281 4.3 23:19:37 17° SSW 23:23:45 32° WSW 23:29:34 10° NW
COSMOS 2428 2.9 23:19:15 10° NW 23:24:52 62° WSW 23:28:13 24° S
SL-4 R/B 1.9 23:22:03 10° WNW 23:26:06 82° SSW 23:30:24 10° ESE
GEOS 3 Rocket 4.2 23:24:24 10° NE 23:29:12 37° ESE 23:31:28 25° S
Cosmos 1782 Rocket 4.4 23:28:02 10° NNW 23:32:04 39° W 23:34:15 23° SW
ATLAS CENTAUR R/B 2.9 23:29:20 10° W 23:32:30 30° NW 23:35:47 10° NNE
Cosmos 1953 4.5 23:31:26 10° NW 23:33:51 16° W 23:35:58 11° WSW
Cosmos 2219 Rocket 3.5 23:29:52 10° NW 23:34:33 27° WSW 23:37:28 18° SSW
Cosmos 1455 4.3 23:33:41 10° NW 23:35:43 15° W 23:37:24 11° WSW
Cosmos 2208 Rocket 4.4 23:31:52 10° NNW 23:36:52 49° WSW 23:39:34 25° SSW
Cosmos 1242 Rocket 4.0 23:35:32 15° WSW 23:36:53 21° WNW 23:39:05 10° NNW
H-2A R/B 4.0 23:35:29 18° SW 23:37:35 27° W 23:41:16 10° NW
Cosmos 158 Rocket 4.4 23:34:13 10° NNW 23:39:22 50° WSW 23:42:07 25° S
Cosmos 1892 3.8 23:38:13 22° SE 23:39:29 28° E 23:42:32 10° NNE
Cosmos 371 Rocket 3.4 23:39:00 27° S 23:41:29 63° ESE 23:46:16 10° NNE
BREEZE-M DEB (TANK) 4.1 23:39:08 10° W 23:42:47 77° S 23:55:26 10° ESE
USA 129 4.3 23:43:28 10° NNW 23:44:00 12° NW 23:44:00 12° NW
Cosmos 773 Rocket 3.9 23:41:40 10° NNW 23:46:49 76° WSW 23:49:51 25° SSE
NOSS 8 (E) 4.3 23:45:42 31° SSW 23:47:14 68° SE 23:50:18 10° NE
Cosmos 2151 Rocket 3.7 23:43:14 10° N 23:47:39 70° E 23:50:04 26° SSE
USA 234 4.1 23:42:10 10° ENE 23:48:29 53° N 23:54:48 10° WNW
ALOS 2 3.7 23:49:16 22° SW 23:51:20 33° W 23:55:19 10° NNW
GENESIS II 4.1 23:49:40 23° SW 23:51:49 77° NW 23:55:28 10° NE
Cosmos 2263 Rocket 4.3 23:51:27 10° ESE 23:53:42 13° E 23:55:57 10° ENE
Okean 2 Rocket 3.1 23:50:31 10° N 23:55:00 76° E 23:57:29 26° SSE
